Time,TemperatureF,DewpointF,PressureIn,WindDirection,WindDirectionDegrees,WindSpeedMPH,WindSpeedGustMPH,Humidity,HourlyPrecipIn,Conditions,Clouds,dailyrainin,SoftwareType,DateUTC
2013-06-10 00:01:00,69.8,64.1,29.23,ESE,109,3.6,3.6,82,0.00,,BKN,0.00,VWS V13.01,2013-06-10 04:01:00,
2013-06-10 00:06:00,69.8,64.1,29.23,ESE,115,4.5,6.7,82,0.00,,BKN,0.00,VWS V13.01,2013-06-10 04:06:00,
2013-06-10 00:11:00,69.6,63.9,29.23,East,90,3.6,3.6,82,0.00,,BKN,0.00,VWS V13.01,2013-06-10 04:11:00,
2013-06-10 00:16:00,69.6,63.9,29.23,ESE,110,2.7,4.0,82,0.00,,BKN,0.00,VWS V13.01,2013-06-10 04:16:00,
2013-06-10 00:21:00,69.6,63.9,29.23,East,100,3.1,5.4,82,0.00,,BKN,0.00,VWS V13.01,2013-06-10 04:21:00,
2013-06-10 00:26:00,69.6,63.9,29.23,ESE,123,2.7,4.5,82,0.00,,BKN,0.00,VWS V13.01,2013-06-10 04:26:00,
2013-06-10 00:32:00,69.6,63.9,29.23,SSE,152,0.0,3.1,82,0.00,,BKN,0.00,VWS V13.01,2013-06-10 04:32:00,
2013-06-10 00:37:00,69.6,63.9,29.23,SSE,152,0.0,0.0,82,0.00,,BKN,0.00,VWS V13.01,2013-06-10 04:37:00,
2013-06-10 00:42:00,69.6,63.9,29.23,SSE,152,0.0,0.0,82,0.00,,BKN,0.00,VWS V13.01,2013-06-10 04:42:00,
2013-06-10 00:47:00,69.4,63.7,29.23,SSE,152,0.0,0.0,82,0.00,,BKN,0.00,VWS V13.01,2013-06-10 04:47:00,
2013-06-10 00:52:00,69.4,63.7,29.23,SSE,152,0.0,0.0,82,0.00,,BKN,0.00,VWS V13.01,2013-06-10 04:52:00,
2013-06-10 00:57:00,69.4,63.7,29.23,SSE,152,0.0,0.0,82,0.00,,BKN,0.00,VWS V13.01,2013-06-10 04:57:00,
2013-06-10 01:02:00,69.3,63.5,29.23,SSE,152,0.0,2.7,82,0.00,,BKN,0.00,VWS V13.01,2013-06-10 05:02:00,
2013-06-10 01:07:00,69.3,63.5,29.23,SSE,152,0.0,0.0,82,0.00,,BKN,0.00,VWS V13.01,2013-06-10 05:07:00,
2013-06-10 01:12:00,69.3,63.9,29.26,SSE,165,0.0,4.5,83,0.00,,BKN,0.00,VWS V13.01,2013-06-10 05:12:00,
2013-06-10 01:17:00,69.3,63.9,29.26,SSW,192,2.7,3.1,83,0.00,,BKN,0.00,VWS V13.01,2013-06-10 05:17:00,
2013-06-10 01:22:00,69.1,64.1,29.26,SSW,192,2.7,3.1,84,0.00,,BKN,0.00,VWS V13.01,2013-06-10 05:22:00,
2013-06-10 01:27:00,69.1,64.1,29.26,SSW,193,0.0,0.0,84,0.00,,BKN,0.00,VWS V13.01,2013-06-10 05:27:00,
2013-06-10 01:32:00,68.9,64.2,29.26,SSW,193,0.0,0.0,85,0.00,,BKN,0.00,VWS V13.01,2013-06-10 05:32:00,
2013-06-10 01:37:00,68.7,64.0,29.26,SSW,192,0.0,0.0,85,0.00,,BKN,0.00,VWS V13.01,2013-06-10 05:37:00,
2013-06-10 01:42:00,68.7,64.0,29.23,SSW,193,0.0,0.0,85,0.00,,BKN,0.00,VWS V13.01,2013-06-10 05:42:00,
2013-06-10 01:47:00,68.5,63.9,29.23,SSW,192,0.0,0.0,85,0.00,,BKN,0.00,VWS V13.01,2013-06-10 05:47:00,
2013-06-10 01:52:00,68.5,63.9,29.23,SSW,192,0.0,0.0,85,0.00,,BKN,0.00,VWS V13.01,2013-06-10 05:52:00,
2013-06-10 01:57:00,68.5,63.9,29.23,SSW,192,0.0,0.0,85,0.00,,BKN,0.00,VWS V13.01,2013-06-10 05:57:00,
2013-06-10 02:02:00,68.4,63.7,29.23,SSW,193,0.0,0.0,85,0.00,,BKN,0.00,VWS V13.01,2013-06-10 06:02:00,
2013-06-10 02:07:00,68.4,63.7,29.23,SSW,193,0.0,0.0,85,0.00,,BKN,0.00,VWS V13.01,2013-06-10 06:07:00,
2013-06-10 02:12:00,68.2,63.5,29.23,SSW,192,0.0,0.0,85,0.00,,BKN,0.00,VWS V13.01,2013-06-10 06:12:00,
2013-06-10 02:17:00,68.2,63.5,29.23,SSW,192,0.0,0.0,85,0.00,,BKN,0.00,VWS V13.01,2013-06-10 06:17:00,
2013-06-10 02:22:00,68.0,63.3,29.23,SSW,192,0.0,0.0,85,0.00,,BKN,0.00,VWS V13.01,2013-06-10 06:22:00,
2013-06-10 02:27:00,68.0,63.7,29.23,SSW,193,0.0,0.0,86,0.00,,BKN,0.00,VWS V13.01,2013-06-10 06:27:00,
2013-06-10 02:32:00,68.0,63.7,29.23,SSW,192,0.0,0.0,86,0.00,,BKN,0.00,VWS V13.01,2013-06-10 06:32:00,
2013-06-10 02:37:00,68.0,63.7,29.23,SSW,192,0.0,0.0,86,0.00,,BKN,0.00,VWS V13.01,2013-06-10 06:37:00,
2013-06-10 02:42:00,68.0,63.7,29.21,SSW,192,0.0,0.0,86,0.00,,BKN,0.00,VWS V13.01,2013-06-10 06:42:00,
2013-06-10 02:47:00,67.8,63.5,29.21,SSW,192,0.0,0.0,86,0.00,,BKN,0.00,VWS V13.01,2013-06-10 06:47:00,
2013-06-10 02:52:00,67.8,63.5,29.21,SSW,193,0.0,0.0,86,0.00,,BKN,0.00,VWS V13.01,2013-06-10 06:52:00,
2013-06-10 02:57:00,67.8,63.5,29.21,SSW,193,0.0,0.0,86,0.00,,BKN,0.00,VWS V13.01,2013-06-10 06:57:00,
2013-06-10 03:02:00,67.8,63.5,29.21,SSW,193,0.0,0.0,86,0.00,,BKN,0.00,VWS V13.01,2013-06-10 07:02:00,
2013-06-10 03:07:00,67.8,63.8,29.21,SSW,193,0.0,0.0,87,0.00,,BKN,0.00,VWS V13.01,2013-06-10 07:07:00,
2013-06-10 03:12:00,67.8,63.8,29.21,SSW,192,0.0,0.0,87,0.00,,BKN,0.00,VWS V13.01,2013-06-10 07:12:00,
2013-06-10 03:17:00,67.8,63.8,29.21,SSW,192,0.0,0.0,87,0.00,,BKN,0.00,VWS V13.01,2013-06-10 07:17:00,
2013-06-10 03:22:00,67.8,63.8,29.21,SSW,193,0.0,0.0,87,0.00,,BKN,0.00,VWS V13.01,2013-06-10 07:22:00,
2013-06-10 03:27:00,67.8,63.8,29.21,SSW,193,0.0,0.0,87,0.00,,BKN,0.00,VWS V13.01,2013-06-10 07:27:00,
2013-06-10 03:32:00,67.8,63.8,29.21,SSW,192,0.0,0.0,87,0.00,,BKN,0.00,VWS V13.01,2013-06-10 07:32:00,
2013-06-10 03:37:00,67.8,64.1,29.21,SSE,154,0.0,0.0,88,0.00,,BKN,0.00,VWS V13.01,2013-06-10 07:37:00,
2013-06-10 03:42:00,67.8,64.1,29.21,SSE,154,2.7,3.1,88,0.00,,BKN,0.00,VWS V13.01,2013-06-10 07:42:00,
2013-06-10 03:47:00,67.6,64.3,29.21,ESE,103,3.1,3.1,89,0.00,,BKN,0.00,VWS V13.01,2013-06-10 07:47:00,
2013-06-10 03:52:00,67.8,64.5,29.21,SE,124,4.9,4.9,89,0.00,,BKN,0.00,VWS V13.01,2013-06-10 07:52:00,
2013-06-10 03:57:00,67.8,64.8,29.21,ESE,113,0.0,2.7,90,0.00,,BKN,0.00,VWS V13.01,2013-06-10 07:57:00,
2013-06-10 04:02:00,67.8,65.1,29.21,SSE,147,0.0,0.0,91,0.00,,BKN,0.00,VWS V13.01,2013-06-10 08:02:00,
2013-06-10 04:07:00,67.6,64.9,29.21,SE,129,0.0,0.0,91,0.00,,BKN,0.00,VWS V13.01,2013-06-10 08:07:00,
2013-06-10 04:12:00,67.6,64.9,29.21,SE,129,0.0,0.0,91,0.00,,BKN,0.00,VWS V13.01,2013-06-10 08:12:00,
2013-06-10 04:17:00,67.6,64.9,29.21,SE,129,0.0,0.0,91,0.00,,BKN,0.00,VWS V13.01,2013-06-10 08:17:00,
2013-06-10 04:22:00,67.6,64.9,29.21,SE,129,0.0,0.0,91,0.00,,BKN,0.00,VWS V13.01,2013-06-10 08:22:00,
2013-06-10 04:27:00,67.6,64.9,29.21,SE,129,0.0,0.0,91,0.00,,BKN,0.00,VWS V13.01,2013-06-10 08:27:00,
2013-06-10 04:32:00,67.6,64.9,29.21,SE,129,0.0,0.0,91,0.00,,BKN,0.00,VWS V13.01,2013-06-10 08:32:00,
2013-06-10 04:37:00,67.5,64.8,29.21,SE,129,0.0,3.1,91,0.00,,BKN,0.00,VWS V13.01,2013-06-10 08:37:00,
2013-06-10 04:42:00,67.5,64.8,29.21,ESE,122,0.0,0.0,91,0.00,,BKN,0.00,VWS V13.01,2013-06-10 08:42:00,
2013-06-10 04:47:00,67.5,64.8,29.21,ESE,122,0.0,0.0,91,0.00,,BKN,0.00,VWS V13.01,2013-06-10 08:47:00,
2013-06-10 04:52:00,67.3,64.6,29.21,ESE,122,0.0,0.0,91,0.00,,BKN,0.00,VWS V13.01,2013-06-10 08:52:00,
2013-06-10 04:57:00,67.3,64.6,29.18,ESE,122,2.7,2.7,91,0.00,,BKN,0.00,VWS V13.01,2013-06-10 08:57:00,
2013-06-10 05:02:00,67.3,64.6,29.18,ESE,103,0.0,0.0,91,0.00,,BKN,0.00,VWS V13.01,2013-06-10 09:02:00,
2013-06-10 05:07:00,67.3,64.6,29.18,ESE,103,0.0,0.0,91,0.00,,BKN,0.00,VWS V13.01,2013-06-10 09:07:00,
2013-06-10 05:12:00,67.3,64.6,29.18,ESE,103,0.0,0.0,91,0.00,,BKN,0.00,VWS V13.01,2013-06-10 09:12:00,
2013-06-10 05:17:00,67.3,64.6,29.18,ESE,103,0.0,0.0,91,0.00,,BKN,0.00,VWS V13.01,2013-06-10 09:17:00,
2013-06-10 05:22:00,67.1,64.4,29.18,ESE,103,0.0,0.0,91,0.00,,BKN,0.00,VWS V13.01,2013-06-10 09:22:00,
2013-06-10 05:27:00,67.1,64.4,29.18,ESE,103,2.7,2.7,91,0.00,,BKN,0.00,VWS V13.01,2013-06-10 09:27:00,
2013-06-10 05:32:00,67.1,64.4,29.18,East,95,3.1,3.1,91,0.00,,BKN,0.00,VWS V13.01,2013-06-10 09:32:00,
2013-06-10 05:37:00,67.1,64.4,29.18,East,95,0.0,0.0,91,0.00,,BKN,0.00,VWS V13.01,2013-06-10 09:37:00,
2013-06-10 05:42:00,66.9,64.2,29.18,East,95,0.0,0.0,91,0.00,,BKN,0.00,VWS V13.01,2013-06-10 09:42:00,
2013-06-10 05:47:00,66.9,64.2,29.18,East,95,0.0,2.7,91,0.00,,BKN,0.00,VWS V13.01,2013-06-10 09:47:00,
2013-06-10 05:52:00,66.9,64.2,29.18,East,90,0.0,3.6,91,0.00,,BKN,0.00,VWS V13.01,2013-06-10 09:52:00,
2013-06-10 05:57:00,66.9,64.2,29.18,ENE,72,3.6,3.6,91,0.00,,BKN,0.00,VWS V13.01,2013-06-10 09:57:00,
2013-06-10 06:02:00,66.9,64.2,29.18,ESE,103,0.0,0.0,91,0.00,,BKN,0.00,VWS V13.01,2013-06-10 10:02:00,
2013-06-10 06:07:00,66.9,64.2,29.18,ENE,76,3.1,3.6,91,0.00,,BKN,0.00,VWS V13.01,2013-06-10 10:07:00,
2013-06-10 06:12:00,66.7,64.0,29.18,NE,53,2.7,2.7,91,0.00,,BKN,0.00,VWS V13.01,2013-06-10 10:12:00,
2013-06-10 06:17:00,66.7,64.0,29.18,NE,53,0.0,0.0,91,0.00,,BKN,0.00,VWS V13.01,2013-06-10 10:17:00,
2013-06-10 06:22:00,66.7,64.0,29.18,NE,53,0.0,0.0,91,0.00,,BKN,0.00,VWS V13.01,2013-06-10 10:22:00,
2013-06-10 06:27:00,66.7,64.0,29.18,NE,52,3.1,3.1,91,0.00,,BKN,0.00,VWS V13.01,2013-06-10 10:27:00,
2013-06-10 06:32:00,66.7,64.0,29.18,NE,52,0.0,2.7,91,0.00,,BKN,0.00,VWS V13.01,2013-06-10 10:32:00,
2013-06-10 06:37:00,66.7,64.0,29.18,East,91,0.0,0.0,91,0.00,,BKN,0.00,VWS V13.01,2013-06-10 10:37:00,
2013-06-10 06:42:00,66.7,64.0,29.18,ENE,78,4.0,4.0,91,0.00,,BKN,0.00,VWS V13.01,2013-06-10 10:42:00,
2013-06-10 06:47:00,66.7,64.0,29.18,ENE,75,4.0,4.0,91,0.00,,BKN,0.00,VWS V13.01,2013-06-10 10:47:00,
2013-06-10 06:52:00,66.7,64.0,29.18,ENE,57,2.7,2.7,91,0.00,,BKN,0.00,VWS V13.01,2013-06-10 10:52:00,
2013-06-10 06:57:00,66.7,64.0,29.18,East,90,4.5,4.5,91,0.00,,BKN,0.00,VWS V13.01,2013-06-10 10:57:00,
2013-06-10 07:02:00,66.7,64.0,29.18,East,99,4.9,5.8,91,0.00,,BKN,0.00,VWS V13.01,2013-06-10 11:02:00,
2013-06-10 07:07:00,66.7,64.0,29.18,SSE,156,6.7,6.7,91,0.00,,BKN,0.00,VWS V13.01,2013-06-10 11:07:00,
2013-06-10 07:12:00,66.7,64.0,29.18,SE,146,3.6,3.6,91,0.00,,BKN,0.00,VWS V13.01,2013-06-10 11:12:00,
2013-06-10 07:17:00,66.7,64.0,29.18,ENE,73,6.7,6.9,91,0.00,,BKN,0.00,VWS V13.01,2013-06-10 11:17:00,
2013-06-10 07:22:00,66.9,64.2,29.18,East,100,4.9,4.9,91,0.00,,BKN,0.00,VWS V13.01,2013-06-10 11:22:00,
2013-06-10 07:27:00,66.9,64.2,29.18,East,89,4.9,4.9,91,0.00,,BKN,0.00,VWS V13.01,2013-06-10 11:27:00,
2013-06-10 07:32:00,66.9,64.2,29.18,East,99,7.8,7.8,91,0.00,,BKN,0.00,VWS V13.01,2013-06-10 11:32:00,
2013-06-10 07:37:00,67.1,64.4,29.18,East,98,5.8,6.9,91,0.00,,BKN,0.00,VWS V13.01,2013-06-10 11:37:00,
2013-06-10 07:42:00,67.1,64.4,29.18,NE,52,5.4,5.4,91,0.00,,BKN,0.00,VWS V13.01,2013-06-10 11:42:00,
2013-06-10 07:47:00,67.1,64.4,29.18,ESE,103,4.9,6.9,91,0.00,,BKN,0.00,VWS V13.01,2013-06-10 11:47:00,
2013-06-10 07:52:00,67.1,64.4,29.18,ESE,104,5.8,6.7,91,0.00,,BKN,0.00,VWS V13.01,2013-06-10 11:52:00,
2013-06-10 07:57:00,67.1,64.4,29.18,ENE,76,4.5,4.5,91,0.00,,BKN,0.00,VWS V13.01,2013-06-10 11:57:00,
2013-06-10 08:02:00,67.1,64.4,29.18,ENE,72,4.0,4.5,91,0.00,,BKN,0.00,VWS V13.01,2013-06-10 12:02:00,
2013-06-10 08:07:00,67.1,64.4,29.18,ENE,71,4.9,4.9,91,0.00,,BKN,0.00,VWS V13.01,2013-06-10 12:07:00,
2013-06-10 08:12:00,67.1,64.4,29.18,East,90,4.0,5.4,91,0.00,,BKN,0.00,VWS V13.01,2013-06-10 12:12:00,
2013-06-10 08:17:00,67.1,64.4,29.18,ESE,111,4.5,4.9,91,0.00,,BKN,0.00,VWS V13.01,2013-06-10 12:17:00,
2013-06-10 08:22:00,67.1,64.4,29.18,East,90,5.4,5.4,91,0.00,,BKN,0.00,VWS V13.01,2013-06-10 12:22:00,
2013-06-10 08:27:00,67.1,64.4,29.18,ESE,102,4.9,5.4,91,0.00,,BKN,0.00,VWS V13.01,2013-06-10 12:27:00,
2013-06-10 08:32:00,67.1,64.4,29.18,ESE,105,4.5,4.5,91,0.00,,BKN,0.00,VWS V13.01,2013-06-10 12:32:00,
2013-06-10 08:37:00,67.1,64.4,29.18,ESE,116,6.7,6.7,91,0.00,,BKN,0.00,VWS V13.01,2013-06-10 12:37:00,
2013-06-10 08:42:00,67.1,64.4,29.18,East,100,6.9,6.9,91,0.00,,BKN,0.00,VWS V13.01,2013-06-10 12:42:00,
2013-06-10 08:47:00,67.1,64.4,29.18,ESE,104,3.6,6.7,91,0.00,,BKN,0.00,VWS V13.01,2013-06-10 12:47:00,
2013-06-10 08:52:00,67.1,64.4,29.18,ESE,104,5.8,6.3,91,0.00,,BKN,0.00,VWS V13.01,2013-06-10 12:52:00,
2013-06-10 08:57:00,67.1,64.4,29.15,NE,54,4.5,5.4,91,0.00,,BKN,0.00,VWS V13.01,2013-06-10 12:57:00,
2013-06-10 09:02:00,67.3,65.8,29.15,ESE,112,3.6,4.5,95,0.00,,BKN,0.00,VWS V13.01,2013-06-10 13:02:00,
2013-06-10 09:07:00,67.5,66.0,29.15,ESE,106,4.5,5.8,95,0.00,,BKN,0.00,VWS V13.01,2013-06-10 13:07:00,
2013-06-10 09:12:00,67.5,66.0,29.15,East,91,3.6,4.0,95,0.00,,BKN,0.00,VWS V13.01,2013-06-10 13:12:00,
2013-06-10 09:17:00,67.5,66.0,29.15,NNE,33,4.5,4.5,95,0.00,,BKN,0.00,VWS V13.01,2013-06-10 13:17:00,
2013-06-10 09:22:00,67.3,65.8,29.15,ENE,64,3.1,3.1,95,0.00,,BKN,0.00,VWS V13.01,2013-06-10 13:22:00,
2013-06-10 09:27:00,67.5,66.0,29.15,East,79,5.4,5.8,95,0.00,,BKN,0.00,VWS V13.01,2013-06-10 13:27:00,
2013-06-10 09:32:00,67.5,66.0,29.15,East,93,4.9,4.9,95,0.00,,BKN,0.00,VWS V13.01,2013-06-10 13:32:00,
2013-06-10 09:37:00,67.6,66.2,29.15,ESE,114,2.7,2.7,95,0.00,,BKN,0.00,VWS V13.01,2013-06-10 13:37:00,
2013-06-10 09:42:00,67.8,66.3,29.15,ESE,111,3.1,4.0,95,0.00,,BKN,0.00,VWS V13.01,2013-06-10 13:42:00,
2013-06-10 09:47:00,67.8,66.3,29.15,SE,131,4.5,5.4,95,0.00,,BKN,0.00,VWS V13.01,2013-06-10 13:47:00,
2013-06-10 09:52:00,68.0,66.5,29.15,ESE,104,2.7,4.5,95,0.00,,BKN,0.00,VWS V13.01,2013-06-10 13:52:00,
2013-06-10 09:57:00,68.0,66.5,29.15,East,93,2.7,4.9,95,0.00,,BKN,0.00,VWS V13.01,2013-06-10 13:57:00,
2013-06-10 10:02:00,68.4,66.9,29.15,East,95,2.7,3.1,95,0.00,,BKN,0.00,VWS V13.01,2013-06-10 14:02:00,
2013-06-10 10:07:00,68.7,67.2,29.15,ESE,103,4.0,4.0,95,0.00,,BKN,0.00,VWS V13.01,2013-06-10 14:07:00,
2013-06-10 10:12:00,68.7,67.2,29.15,ESE,121,4.9,5.4,95,0.00,,BKN,0.00,VWS V13.01,2013-06-10 14:12:00,
2013-06-10 10:17:00,68.7,67.2,29.15,ESE,120,5.4,5.8,95,0.00,,BKN,0.00,VWS V13.01,2013-06-10 14:17:00,
2013-06-10 10:22:00,68.4,66.9,29.15,ESE,109,5.8,5.8,95,0.00,,BKN,0.00,VWS V13.01,2013-06-10 14:22:00,
2013-06-10 10:27:00,68.4,66.9,29.12,East,91,6.7,6.7,95,0.00,,BKN,0.00,VWS V13.01,2013-06-10 14:27:00,
2013-06-10 10:32:00,68.4,66.9,29.12,ESE,113,4.9,5.4,95,0.00,,BKN,0.00,VWS V13.01,2013-06-10 14:32:00,
2013-06-10 10:37:00,68.5,67.1,29.12,SE,128,4.0,4.0,95,0.00,,BKN,0.00,VWS V13.01,2013-06-10 14:37:00,
2013-06-10 10:42:00,68.5,67.1,29.12,East,83,3.6,4.0,95,0.00,,BKN,0.00,VWS V13.01,2013-06-10 14:42:00,
2013-06-10 10:47:00,68.5,67.1,29.12,ESE,107,6.3,7.4,95,0.00,,BKN,0.00,VWS V13.01,2013-06-10 14:47:00,
2013-06-10 10:52:00,68.7,67.2,29.12,ESE,107,4.5,6.7,95,0.00,,BKN,0.00,VWS V13.01,2013-06-10 14:52:00,
2013-06-10 10:57:00,68.7,67.2,29.12,East,96,4.0,4.9,95,0.00,,BKN,0.00,VWS V13.01,2013-06-10 14:57:00,
2013-06-10 11:02:00,68.7,67.2,29.12,East,90,3.1,4.0,95,0.00,,BKN,0.00,VWS V13.01,2013-06-10 15:02:00,
2013-06-10 11:07:00,69.1,67.3,29.12,ESE,120,3.1,4.0,94,0.00,,BKN,0.00,VWS V13.01,2013-06-10 15:07:00,
2013-06-10 11:12:00,69.3,67.8,29.12,ESE,117,3.6,4.5,95,0.00,,BKN,0.00,VWS V13.01,2013-06-10 15:12:00,
2013-06-10 11:17:00,69.3,67.8,29.12,SE,126,4.5,5.4,95,0.00,,BKN,0.00,VWS V13.01,2013-06-10 15:17:00,
2013-06-10 11:22:00,69.4,67.9,29.12,East,96,3.6,6.3,95,0.00,,BKN,0.00,VWS V13.01,2013-06-10 15:22:00,
2013-06-10 11:27:00,69.3,67.8,29.12,East,100,4.0,6.3,95,0.00,,BKN,0.00,VWS V13.01,2013-06-10 15:27:00,
2013-06-10 11:32:00,69.3,67.5,29.12,ENE,69,3.6,5.8,94,0.00,,BKN,0.00,VWS V13.01,2013-06-10 15:32:00,
2013-06-10 11:37:00,69.4,67.9,29.12,ESE,107,6.7,6.9,95,0.00,,BKN,0.00,VWS V13.01,2013-06-10 15:37:00,
2013-06-10 11:42:00,69.3,67.5,29.12,ESE,108,6.3,6.3,94,0.00,,BKN,0.00,VWS V13.01,2013-06-10 15:42:00,
2013-06-10 11:47:00,69.3,67.5,29.12,SE,137,5.4,5.4,94,0.00,,BKN,0.00,VWS V13.01,2013-06-10 15:47:00,
2013-06-10 11:52:00,69.4,67.6,29.12,ENE,76,3.1,4.5,94,0.00,,BKN,0.00,VWS V13.01,2013-06-10 15:52:00,
2013-06-10 11:57:00,69.6,67.8,29.12,ESE,116,4.9,5.4,94,0.00,,BKN,0.00,VWS V13.01,2013-06-10 15:57:00,
2013-06-10 12:02:00,69.6,67.8,29.12,ESE,105,0.0,0.0,94,0.00,,BKN,0.00,VWS V13.01,2013-06-10 16:02:00,
2013-06-10 12:07:00,69.8,68.0,29.12,SSE,158,3.1,4.5,94,0.00,,BKN,0.00,VWS V13.01,2013-06-10 16:07:00,
2013-06-10 12:12:00,69.6,67.8,29.12,SE,130,2.7,3.6,94,0.00,,BKN,0.00,VWS V13.01,2013-06-10 16:12:00,
2013-06-10 12:17:00,69.8,68.0,29.12,ESE,115,3.1,3.6,94,0.00,,BKN,0.00,VWS V13.01,2013-06-10 16:17:00,
2013-06-10 12:22:00,69.6,67.8,29.12,ESE,105,2.7,3.1,94,0.00,,BKN,0.00,VWS V13.01,2013-06-10 16:22:00,
2013-06-10 12:27:00,69.8,68.0,29.09,ESE,105,2.7,2.7,94,0.00,,BKN,0.00,VWS V13.01,2013-06-10 16:27:00,
2013-06-10 12:32:00,70.0,68.2,29.09,ESE,105,2.7,2.7,94,0.00,,BKN,0.00,VWS V13.01,2013-06-10 16:32:00,
2013-06-10 12:37:00,70.0,68.2,29.09,ESE,105,2.7,2.7,94,0.00,,BKN,0.00,VWS V13.01,2013-06-10 16:37:00,
2013-06-10 12:42:00,70.2,68.4,29.09,ESE,105,2.7,2.7,94,0.00,,BKN,0.00,VWS V13.01,2013-06-10 16:42:00,
2013-06-10 12:47:00,70.2,68.4,29.09,ESE,105,2.7,2.7,94,0.00,,BKN,0.00,VWS V13.01,2013-06-10 16:47:00,
2013-06-10 12:52:00,70.0,68.2,29.09,ESE,105,2.7,2.7,94,0.00,,BKN,0.00,VWS V13.01,2013-06-10 16:52:00,
2013-06-10 12:57:00,70.2,68.4,29.09,ESE,105,2.7,2.7,94,0.00,,BKN,0.00,VWS V13.01,2013-06-10 16:57:00,
2013-06-10 13:02:00,70.3,68.5,29.09,ESE,105,2.7,2.7,94,0.00,,BKN,0.00,VWS V13.01,2013-06-10 17:02:00,
2013-06-10 13:07:00,70.5,68.7,29.09,ESE,105,2.7,2.7,94,0.00,,BKN,0.00,VWS V13.01,2013-06-10 17:07:00,
2013-06-10 13:12:00,70.7,68.9,29.06,ESE,105,2.7,2.7,94,0.00,,BKN,0.00,VWS V13.01,2013-06-10 17:12:00,
2013-06-10 13:17:00,70.7,68.9,29.06,ESE,105,2.7,2.7,94,0.00,,BKN,0.00,VWS V13.01,2013-06-10 17:17:00,
2013-06-10 13:22:00,71.1,69.2,29.06,ESE,105,2.7,2.7,94,0.00,,BKN,0.00,VWS V13.01,2013-06-10 17:22:00,
2013-06-10 13:27:00,71.1,69.2,29.06,ESE,105,2.7,2.7,94,0.00,,BKN,0.00,VWS V13.01,2013-06-10 17:27:00,
2013-06-10 13:32:00,71.4,69.6,29.06,ESE,105,2.7,2.7,94,0.00,,BKN,0.00,VWS V13.01,2013-06-10 17:32:00,
2013-06-10 13:37:00,71.4,69.6,29.06,ESE,105,2.7,2.7,94,0.00,,BKN,0.00,VWS V13.01,2013-06-10 17:37:00,
2013-06-10 13:42:00,72.1,70.3,29.06,ESE,105,2.7,2.7,94,0.00,,BKN,0.00,VWS V13.01,2013-06-10 17:42:00,
2013-06-10 13:47:00,72.5,70.7,29.06,ESE,105,2.7,2.7,94,0.00,,BKN,0.00,VWS V13.01,2013-06-10 17:47:00,
2013-06-10 13:52:00,72.5,70.7,29.06,ESE,105,2.7,2.7,94,0.00,,BKN,0.00,VWS V13.01,2013-06-10 17:52:00,
2013-06-10 13:57:00,72.7,70.9,29.06,ESE,105,2.7,2.7,94,0.00,,BKN,0.00,VWS V13.01,2013-06-10 17:57:00,
2013-06-10 14:02:00,72.9,70.7,29.06,ESE,105,2.7,2.7,93,0.00,,BKN,0.00,VWS V13.01,2013-06-10 18:02:00,
2013-06-10 14:07:00,73.4,70.6,29.06,ESE,105,2.7,2.7,91,0.00,,BKN,0.00,VWS V13.01,2013-06-10 18:07:00,
2013-06-10 14:12:00,73.6,70.1,29.03,ESE,105,2.7,2.7,89,0.00,,BKN,0.00,VWS V13.01,2013-06-10 18:12:00,
2013-06-10 14:17:00,73.8,70.0,29.03,ESE,105,2.7,2.7,88,0.00,,BKN,0.00,VWS V13.01,2013-06-10 18:17:00,
2013-06-10 14:22:00,73.8,68.6,29.03,ESE,105,2.7,2.7,84,0.00,,BKN,0.00,VWS V13.01,2013-06-10 18:22:00,
2013-06-10 14:27:00,73.9,67.8,29.03,SSE,147,3.1,4.9,81,0.00,,BKN,0.00,VWS V13.01,2013-06-10 18:27:00,
2013-06-10 14:32:00,74.3,68.1,29.03,ENE,64,3.6,6.3,81,0.00,,BKN,0.00,VWS V13.01,2013-06-10 18:32:00,
2013-06-10 14:37:00,74.8,67.9,29.03,SSE,153,4.0,4.9,79,0.00,,BKN,0.00,VWS V13.01,2013-06-10 18:37:00,
2013-06-10 14:42:00,75.4,68.1,29.03,East,89,2.7,4.5,78,0.00,,BKN,0.00,VWS V13.01,2013-06-10 18:42:00,
2013-06-10 14:47:00,76.1,67.2,29.03,ESE,106,4.5,5.4,74,0.00,,BKN,0.00,VWS V13.01,2013-06-10 18:47:00,
2013-06-10 14:52:00,76.1,65.6,29.03,South,184,2.7,3.1,70,0.00,,BKN,0.00,VWS V13.01,2013-06-10 18:52:00,
2013-06-10 14:57:00,75.9,65.0,29.00,South,175,0.0,4.0,69,0.00,,BKN,0.00,VWS V13.01,2013-06-10 18:57:00,
2013-06-10 15:02:00,76.1,66.0,29.00,ESE,116,3.1,3.6,71,0.00,,BKN,0.00,VWS V13.01,2013-06-10 19:02:00,
2013-06-10 15:07:00,76.5,65.5,29.00,ESE,116,6.3,7.4,69,0.00,,BKN,0.00,VWS V13.01,2013-06-10 19:07:00,
2013-06-10 15:12:00,77.2,66.2,29.00,SSE,150,3.6,4.0,69,0.00,,BKN,0.00,VWS V13.01,2013-06-10 19:12:00,
2013-06-10 15:17:00,77.4,65.1,29.00,SSE,154,5.4,6.3,66,0.00,,BKN,0.00,VWS V13.01,2013-06-10 19:17:00,
2013-06-10 15:22:00,77.2,64.9,29.00,SW,224,4.0,7.8,66,0.00,,BKN,0.00,VWS V13.01,2013-06-10 19:22:00,
2013-06-10 15:27:00,77.2,65.4,29.00,SSE,154,3.6,5.4,67,0.00,,BKN,0.00,VWS V13.01,2013-06-10 19:27:00,
2013-06-10 15:32:00,77.2,64.9,29.00,SE,132,4.9,4.9,66,0.00,,BKN,0.00,VWS V13.01,2013-06-10 19:32:00,
2013-06-10 15:37:00,77.5,65.7,29.00,SE,131,6.3,6.3,67,0.00,,BKN,0.00,VWS V13.01,2013-06-10 19:37:00,
2013-06-10 15:43:00,77.7,65.5,28.97,SSW,199,3.6,4.5,66,0.00,,BKN,0.00,VWS V13.01,2013-06-10 19:43:00,
2013-06-10 15:48:00,78.1,65.4,28.97,ENE,76,2.7,2.7,65,0.00,,BKN,0.00,VWS V13.01,2013-06-10 19:48:00,
2013-06-10 15:53:00,78.3,65.5,28.97,SSE,152,5.4,7.4,65,0.00,,BKN,0.00,VWS V13.01,2013-06-10 19:53:00,
2013-06-10 15:58:00,78.3,65.5,28.97,SSE,161,4.5,5.4,65,0.00,,BKN,0.00,VWS V13.01,2013-06-10 19:58:00,
2013-06-10 16:02:00,78.4,64.8,28.97,ESE,113,3.6,6.3,63,0.00,,BKN,0.00,VWS V13.01,2013-06-10 20:02:00,
2013-06-10 16:07:00,78.6,64.1,28.97,SE,146,3.1,4.5,61,0.00,,BKN,0.00,VWS V13.01,2013-06-10 20:07:00,
2013-06-10 16:12:00,78.4,64.8,28.97,SE,132,3.6,4.0,63,0.00,,BKN,0.00,VWS V13.01,2013-06-10 20:12:00,
2013-06-10 16:17:00,78.1,64.9,28.97,ESE,115,3.1,4.5,64,0.00,,BKN,0.00,VWS V13.01,2013-06-10 20:17:00,
2013-06-10 16:22:00,78.3,65.5,28.97,East,95,5.4,5.4,65,0.00,,BKN,0.00,VWS V13.01,2013-06-10 20:22:00,
2013-06-10 16:27:00,78.3,65.1,28.97,ESE,105,3.6,3.6,64,0.00,,BKN,0.00,VWS V13.01,2013-06-10 20:27:00,
2013-06-10 16:32:00,78.3,65.5,28.97,SW,224,4.5,5.4,65,0.00,,BKN,0.00,VWS V13.01,2013-06-10 20:32:00,
2013-06-10 16:37:00,78.1,65.4,28.97,SSW,201,4.0,4.5,65,0.00,,BKN,0.00,VWS V13.01,2013-06-10 20:37:00,
2013-06-10 16:42:00,77.5,65.3,28.97,South,191,4.0,6.3,66,0.00,,BKN,0.00,VWS V13.01,2013-06-10 20:42:00,
2013-06-10 16:48:00,77.2,65.4,28.97,SW,214,3.6,3.6,67,0.00,,BKN,0.00,VWS V13.01,2013-06-10 20:48:00,
2013-06-10 16:52:00,77.0,65.2,28.97,SSW,205,2.7,3.1,67,0.00,,BKN,0.00,VWS V13.01,2013-06-10 20:52:00,
2013-06-10 16:57:00,76.5,64.7,28.97,WSW,256,4.5,6.7,67,0.00,,BKN,0.00,VWS V13.01,2013-06-10 20:57:00,
2013-06-10 17:02:00,75.0,61.6,28.97,NW,316,7.4,10.1,63,0.00,,BKN,0.00,VWS V13.01,2013-06-10 21:02:00,
2013-06-10 17:07:00,72.7,60.2,28.97,SW,223,0.0,2.7,65,0.00,,BKN,0.00,VWS V13.01,2013-06-10 21:07:00,
2013-06-10 17:12:00,71.4,60.3,29.00,WNW,300,4.5,4.5,68,0.00,,BKN,0.00,VWS V13.01,2013-06-10 21:12:00,
2013-06-10 17:17:00,70.5,60.3,29.00,WNW,295,0.0,0.0,70,0.00,,BKN,0.00,VWS V13.01,2013-06-10 21:17:00,
2013-06-10 17:22:00,70.2,61.1,29.00,WNW,300,3.6,4.5,73,0.00,,BKN,0.00,VWS V13.01,2013-06-10 21:22:00,
2013-06-10 17:27:00,69.6,61.3,28.97,SW,233,0.0,4.5,75,0.00,,BKN,0.00,VWS V13.01,2013-06-10 21:27:00,
2013-06-10 17:32:00,69.4,61.9,28.97,West,271,0.0,4.9,77,0.00,,BKN,0.00,VWS V13.01,2013-06-10 21:32:00,
2013-06-10 17:37:00,69.4,62.7,28.97,West,270,3.1,5.8,79,0.00,,BKN,0.00,VWS V13.01,2013-06-10 21:37:00,
2013-06-10 17:42:00,69.3,62.5,28.97,West,270,0.0,0.0,79,0.00,,BKN,0.00,VWS V13.01,2013-06-10 21:42:00,
2013-06-10 17:47:00,69.3,62.8,28.97,West,270,0.0,0.0,80,0.00,,BKN,0.00,VWS V13.01,2013-06-10 21:47:00,
2013-06-10 17:52:00,69.4,63.4,28.97,SW,227,3.6,4.5,81,0.00,,BKN,0.00,VWS V13.01,2013-06-10 21:52:00,
2013-06-10 17:57:00,69.3,63.5,28.97,SW,221,4.0,4.9,82,0.00,,BKN,0.00,VWS V13.01,2013-06-10 21:57:00,
2013-06-10 18:02:00,69.3,64.2,28.97,SW,218,3.6,4.5,84,0.00,,BKN,0.00,VWS V13.01,2013-06-10 22:02:00,
2013-06-10 18:07:00,69.1,64.4,28.97,SSW,204,3.6,4.9,85,0.00,,BKN,0.00,VWS V13.01,2013-06-10 22:07:00,
2013-06-10 18:12:00,69.1,64.4,28.97,SW,230,3.6,4.0,85,0.00,,BKN,0.00,VWS V13.01,2013-06-10 22:12:00,
2013-06-10 18:17:00,69.1,64.7,28.97,SW,230,3.1,3.1,86,0.00,,BKN,0.00,VWS V13.01,2013-06-10 22:17:00,
2013-06-10 18:22:00,69.1,64.7,28.97,SW,230,0.0,0.0,86,0.00,,BKN,0.00,VWS V13.01,2013-06-10 22:22:00,
2013-06-10 18:27:00,69.4,65.4,28.97,WSW,237,0.0,0.0,87,0.00,,BKN,0.00,VWS V13.01,2013-06-10 22:27:00,
2013-06-10 18:32:00,69.6,65.6,28.97,WSW,237,0.0,0.0,87,0.00,,BKN,0.00,VWS V13.01,2013-06-10 22:32:00,
2013-06-10 18:37:00,69.6,65.6,28.97,WSW,237,0.0,0.0,87,0.00,,BKN,0.00,VWS V13.01,2013-06-10 22:37:00,
2013-06-10 18:42:00,69.6,65.2,28.97,WSW,237,0.0,0.0,86,0.00,,BKN,0.00,VWS V13.01,2013-06-10 22:42:00,
2013-06-10 18:47:00,69.8,65.4,28.97,WSW,237,0.0,0.0,86,0.00,,BKN,0.00,VWS V13.01,2013-06-10 22:47:00,
2013-06-10 18:52:00,69.8,65.8,28.97,WSW,237,0.0,0.0,87,0.00,,BKN,0.00,VWS V13.01,2013-06-10 22:52:00,
2013-06-10 18:57:00,69.8,65.8,28.97,East,81,4.5,4.5,87,0.00,,BKN,0.00,VWS V13.01,2013-06-10 22:57:00,
2013-06-10 19:02:00,69.8,65.8,28.97,ESE,108,3.6,4.5,87,0.00,,BKN,0.00,VWS V13.01,2013-06-10 23:02:00,
2013-06-10 19:07:00,69.4,65.4,28.97,SSE,147,3.6,4.9,87,0.00,,BKN,0.00,VWS V13.01,2013-06-10 23:07:00,
2013-06-10 19:12:00,69.1,65.1,28.97,SE,142,2.7,3.6,87,0.00,,BKN,0.00,VWS V13.01,2013-06-10 23:12:00,
2013-06-10 19:17:00,68.9,64.9,28.97,South,187,0.0,2.7,87,0.00,,BKN,0.00,VWS V13.01,2013-06-10 23:17:00,
2013-06-10 19:22:00,68.7,65.0,28.97,SSE,162,2.7,5.8,88,0.00,,BKN,0.00,VWS V13.01,2013-06-10 23:22:00,
2013-06-10 19:27:00,68.5,64.8,28.97,SSE,162,0.0,0.0,88,0.00,,BKN,0.00,VWS V13.01,2013-06-10 23:27:00,
2013-06-10 19:32:00,68.4,64.7,28.97,SSE,162,0.0,0.0,88,0.00,,BKN,0.00,VWS V13.01,2013-06-10 23:32:00,
2013-06-10 19:37:00,68.4,64.7,28.97,SSE,162,0.0,0.0,88,0.00,,BKN,0.00,VWS V13.01,2013-06-10 23:37:00,
2013-06-10 19:42:00,68.4,64.7,28.97,SSE,162,0.0,0.0,88,0.00,,BKN,0.00,VWS V13.01,2013-06-10 23:42:00,
2013-06-10 19:47:00,68.4,64.7,28.97,SSE,162,0.0,0.0,88,0.00,,BKN,0.00,VWS V13.01,2013-06-10 23:47:00,
2013-06-10 19:52:00,68.4,64.7,28.97,SSE,149,0.0,0.0,88,0.00,,BKN,0.00,VWS V13.01,2013-06-10 23:52:00,
2013-06-10 19:57:00,68.4,64.7,28.97,SSE,149,0.0,0.0,88,0.00,,BKN,0.00,VWS V13.01,2013-06-10 23:57:00,
2013-06-10 20:02:00,68.5,65.2,28.97,West,278,0.0,3.1,89,0.00,,BKN,0.00,VWS V13.01,2013-06-11 00:02:00,
2013-06-10 20:08:00,68.5,65.2,28.97,West,278,2.7,2.7,89,0.00,,BKN,0.00,VWS V13.01,2013-06-11 00:08:00,
2013-06-10 20:13:00,68.5,65.2,28.97,NW,318,0.0,3.6,89,0.00,,BKN,0.00,VWS V13.01,2013-06-11 00:13:00,
2013-06-10 20:18:00,68.5,65.2,28.97,WNW,284,3.1,5.4,89,0.00,,BKN,0.00,VWS V13.01,2013-06-11 00:18:00,
2013-06-10 20:23:00,68.5,65.2,28.97,WSW,256,0.0,0.0,89,0.00,,BKN,0.00,VWS V13.01,2013-06-11 00:23:00,
2013-06-10 20:28:00,68.5,65.5,28.97,West,261,3.1,3.6,90,0.00,,BKN,0.00,VWS V13.01,2013-06-11 00:28:00,
2013-06-10 20:33:00,68.5,65.5,28.97,WSW,249,2.7,4.0,90,0.00,,BKN,0.00,VWS V13.01,2013-06-11 00:33:00,
2013-06-10 20:38:00,68.4,65.3,28.97,WSW,245,3.1,4.5,90,0.00,,BKN,0.00,VWS V13.01,2013-06-11 00:38:00,
2013-06-10 20:43:00,68.4,65.3,28.97,South,176,2.7,3.1,90,0.00,,BKN,0.00,VWS V13.01,2013-06-11 00:43:00,
2013-06-10 20:48:00,68.2,65.1,28.97,SSE,156,3.6,3.6,90,0.00,,BKN,0.00,VWS V13.01,2013-06-11 00:48:00,
2013-06-10 20:53:00,68.2,65.1,28.97,SSW,206,0.0,3.6,90,0.00,,BKN,0.00,VWS V13.01,2013-06-11 00:53:00,
2013-06-10 20:58:00,68.2,65.1,28.97,South,171,0.0,4.0,90,0.00,,BKN,0.00,VWS V13.01,2013-06-11 00:58:00,
2013-06-10 21:03:00,68.2,65.1,28.97,South,173,3.6,3.6,90,0.00,,BKN,0.00,VWS V13.01,2013-06-11 01:03:00,
2013-06-10 21:08:00,68.0,65.0,28.97,SSE,165,2.7,3.1,90,0.00,,BKN,0.00,VWS V13.01,2013-06-11 01:08:00,
2013-06-10 21:13:00,68.0,65.0,28.97,SSE,165,2.7,2.7,90,0.00,,BKN,0.00,VWS V13.01,2013-06-11 01:13:00,
2013-06-10 21:18:00,68.0,65.0,28.97,South,191,4.5,5.4,90,0.00,,BKN,0.00,VWS V13.01,2013-06-11 01:18:00,
2013-06-10 21:22:00,68.2,65.5,28.97,SW,220,3.1,4.5,91,0.00,,BKN,0.00,VWS V13.01,2013-06-11 01:22:00,
2013-06-10 21:27:00,68.2,65.5,29.00,South,171,3.1,5.8,91,0.00,,BKN,0.00,VWS V13.01,2013-06-11 01:27:00,
2013-06-10 21:32:00,68.2,65.5,29.00,South,171,0.0,0.0,91,0.00,,BKN,0.00,VWS V13.01,2013-06-11 01:32:00,
2013-06-10 21:37:00,68.0,65.3,29.00,South,171,0.0,0.0,91,0.00,,BKN,0.00,VWS V13.01,2013-06-11 01:37:00,
2013-06-10 21:42:00,68.0,65.3,29.00,South,171,0.0,0.0,91,0.00,,BKN,0.00,VWS V13.01,2013-06-11 01:42:00,
2013-06-10 21:47:00,67.8,65.1,29.00,SW,219,3.1,3.6,91,0.00,,BKN,0.00,VWS V13.01,2013-06-11 01:47:00,
2013-06-10 21:52:00,67.8,65.1,29.00,SW,219,0.0,0.0,91,0.00,,BKN,0.00,VWS V13.01,2013-06-11 01:52:00,
2013-06-10 21:57:00,67.8,65.1,29.00,WSW,238,3.6,4.5,91,0.00,,BKN,0.00,VWS V13.01,2013-06-11 01:57:00,
2013-06-10 22:03:00,67.8,65.1,29.00,WSW,238,0.0,0.0,91,0.00,,BKN,0.00,VWS V13.01,2013-06-11 02:03:00,
2013-06-10 22:07:00,67.8,65.1,29.00,WSW,238,0.0,0.0,91,0.00,,BKN,0.00,VWS V13.01,2013-06-11 02:07:00,
2013-06-10 22:12:00,67.8,65.1,29.00,WSW,238,0.0,0.0,91,0.00,,BKN,0.00,VWS V13.01,2013-06-11 02:12:00,
2013-06-10 22:17:00,67.6,64.9,29.00,WSW,239,0.0,0.0,91,0.00,,BKN,0.00,VWS V13.01,2013-06-11 02:17:00,
2013-06-10 22:22:00,67.6,64.9,29.00,WSW,239,3.1,3.6,91,0.00,,BKN,0.00,VWS V13.01,2013-06-11 02:22:00,
2013-06-10 22:27:00,67.6,64.9,29.00,SW,223,2.7,4.0,91,0.00,,BKN,0.00,VWS V13.01,2013-06-11 02:27:00,
2013-06-10 22:32:00,67.6,64.9,29.00,SE,145,3.1,4.5,91,0.00,,BKN,0.00,VWS V13.01,2013-06-11 02:32:00,
2013-06-10 22:37:00,67.6,64.9,29.00,SSW,209,3.1,4.0,91,0.00,,BKN,0.00,VWS V13.01,2013-06-11 02:37:00,
2013-06-10 22:42:00,67.6,64.9,29.00,SW,214,3.6,4.0,91,0.00,,BKN,0.00,VWS V13.01,2013-06-11 02:42:00,
2013-06-10 22:47:00,67.5,64.8,29.00,SW,215,0.0,3.6,91,0.00,,BKN,0.00,VWS V13.01,2013-06-11 02:47:00,
2013-06-10 22:53:00,67.6,64.9,29.00,SW,236,6.3,6.3,91,0.00,,BKN,0.00,VWS V13.01,2013-06-11 02:53:00,
2013-06-10 22:58:00,67.6,64.9,29.00,WSW,247,4.5,4.9,91,0.00,,BKN,0.00,VWS V13.01,2013-06-11 02:58:00,
2013-06-10 23:03:00,67.6,64.9,29.00,SSW,201,3.6,4.9,91,0.00,,BKN,0.00,VWS V13.01,2013-06-11 03:03:00,
2013-06-10 23:08:00,67.6,65.2,29.00,SW,228,4.9,4.9,92,0.00,,BKN,0.00,VWS V13.01,2013-06-11 03:08:00,
2013-06-10 23:13:00,67.6,64.9,29.00,SW,218,3.6,4.5,91,0.00,,BKN,0.00,VWS V13.01,2013-06-11 03:13:00,
2013-06-10 23:18:00,67.6,64.9,29.00,SW,223,4.5,8.3,91,0.00,,BKN,0.00,VWS V13.01,2013-06-11 03:18:00,
2013-06-10 23:22:00,67.6,64.9,29.00,SW,215,3.6,4.5,91,0.00,,BKN,0.00,VWS V13.01,2013-06-11 03:22:00,
2013-06-10 23:27:00,67.6,64.9,29.00,SW,217,4.9,6.3,91,0.00,,BKN,0.00,VWS V13.01,2013-06-11 03:27:00,
2013-06-10 23:32:00,67.6,64.9,29.00,SW,225,2.7,4.0,91,0.00,,BKN,0.00,VWS V13.01,2013-06-11 03:32:00,
2013-06-10 23:37:00,67.6,64.9,29.00,WSW,239,3.1,4.5,91,0.00,,BKN,0.00,VWS V13.01,2013-06-11 03:37:00,
2013-06-10 23:42:00,67.6,64.9,29.00,SSW,201,3.6,4.0,91,0.00,,BKN,0.00,VWS V13.01,2013-06-11 03:42:00,
2013-06-10 23:47:00,67.6,64.9,29.00,SW,220,3.6,4.9,91,0.00,,BKN,0.00,VWS V13.01,2013-06-11 03:47:00,
2013-06-10 23:52:00,67.5,64.8,29.00,SW,216,2.7,3.6,91,0.00,,BKN,0.00,VWS V13.01,2013-06-11 03:52:00,
2013-06-10 23:57:00,67.5,64.8,29.00,SW,232,3.6,4.5,91,0.00,,BKN,0.00,VWS V13.01,2013-06-11 03:57:00,